Lumberton, NC

9:51 PM EDT on June 27, 2017 (GMT -0400)
Lumberton Municipal

Weather History for KLBT - April, 2014

Change the Weather History Date:

Saturday, April 19, 2014

  Actual Average Record
Temperature  
Mean Temperature 51 °F 62 °F  
Max Temperature 53 °F 75 °F 90 °F (2002)
Min Temperature 48 °F 50 °F 30 °F (2001)
Degree Days  
Heating Degree Days 14 4  
Month to date heating degree days 98 115  
Since 1 July heating degree days 2906 2691  
Cooling Degree Days 0 2  
Month to date cooling degree days 20 30  
Year to date cooling degree days 22 43  
Moisture  
Dew Point 49 °F    
Average Humidity 93    
Maximum Humidity 100    
Minimum Humidity 86    
Precipitation  
Precipitation 0.87 in 0.10 in 0.87 in (2014)
Month to date precipitation 3.01 1.85  
Year to date precipitation 12.50 11.05  
Sea Level Pressure  
Sea Level Pressure 30.09 in    
Wind  
Wind Speed 14 mph (NE)    
Max Wind Speed 24 mph    
Max Gust Speed 31 mph    
Visibility 5 miles    
Events Rain    
T = Trace of Precipitation, MM = Missing Value Source: NWS Daily Summary

Daily Weather History Graph

Daily Weather History Graph

Search for Another Location

Airport or City:

Trip Planner

Search our weather history database for the weather conditions in past years. The results will help you decide how hot, cold, wet, or windy it might be!

Date:

Astronomy

Apr. 19, 2014 Rise Set
Actual Time 6:39 AM EDT 7:51 PM EDT
Civil Twilight 6:13 AM EDT 8:17 PM EDT
Nautical Twilight 5:42 AM EDT 8:48 PM EDT
Astronomical Twilight 5:10 AM EDT 9:21 PM EDT
Moon No Moon Rise 10:02 AM EDT (4/19)
Length of Visible Light 14h 04m
Length of Day
13h 11m
Waning Gibbous, 79% of the Moon is Illuminated
Apr 19
Waning Gibbous
Apr 22
Last Quarter
Apr 29
New
May 6
First Quarter
May 14
Full

Hourly Weather History & Observations

Time (EDT) Temp. Dew Point Humidity Pressure Visibility Wind Dir Wind Speed Gust Speed Precip Events Conditions
12:36 AM 52.0 °F 50.0 °F 93% 30.13 in 3.0 mi NE 11.5 mph - 0.13 in Rain Heavy Rain
12:54 AM 52.0 °F 50.0 °F 93% 30.14 in 4.0 mi NE 10.4 mph - 0.17 in Rain Light Rain
1:22 AM 52.0 °F 50.0 °F 93% 30.13 in 2.5 mi NE 13.8 mph 23.0 mph 0.12 in Rain Heavy Rain
1:32 AM 52.0 °F 50.0 °F 93% 30.12 in 4.0 mi ENE 11.5 mph - 0.15 in Rain Rain
1:54 AM 52.0 °F 50.0 °F 93% 30.10 in 4.0 mi NE 10.4 mph 20.7 mph 0.18 in Rain Rain
2:03 AM 52.0 °F 50.0 °F 93% 30.10 in 6.0 mi NE 12.7 mph - 0.01 in Rain Light Rain
2:54 AM 52.0 °F 51.1 °F 97% 30.05 in 8.0 mi NE 12.7 mph - 0.15 in Rain Light Rain
3:07 AM 53.1 °F 51.1 °F 93% 30.06 in 9.0 mi NE 13.8 mph - 0.00 in Rain Light Rain
3:30 AM 53.1 °F 51.1 °F 93% 30.05 in 5.0 mi NE 10.4 mph - 0.03 in Rain Light Rain
3:54 AM 53.1 °F 52.0 °F 96% 30.05 in 8.0 mi NE 12.7 mph - 0.05 in Rain Light Rain
4:30 AM 52.0 °F 50.0 °F 93% 30.05 in 10.0 mi NE 18.4 mph 24.2 mph 0.00 in   Overcast
4:54 AM 52.0 °F 50.0 °F 93% 30.05 in 10.0 mi NE 12.7 mph 24.2 mph 0.00 in   Overcast
5:47 AM 50.0 °F 48.0 °F 93% 30.03 in 10.0 mi NE 17.3 mph 27.6 mph 0.00 in   Overcast
5:54 AM 50.0 °F 48.0 °F 93% 30.03 in 10.0 mi NE 18.4 mph 27.6 mph 0.01 in Rain Light Rain
6:42 AM 50.0 °F 46.9 °F 89% 30.03 in 7.0 mi NE 16.1 mph 21.9 mph 0.01 in Rain Light Rain
6:54 AM 50.0 °F 46.9 °F 89% 30.04 in 5.0 mi NE 13.8 mph 20.7 mph 0.02 in Rain Light Rain
7:16 AM 50.0 °F 48.0 °F 93% 30.04 in 6.0 mi NE 15.0 mph 27.6 mph 0.02 in Rain Light Rain
7:54 AM 50.0 °F 48.0 °F 93% 30.05 in 7.0 mi NE 10.4 mph 19.6 mph 0.03 in   Overcast
8:39 AM 50.0 °F 48.0 °F 93% 30.04 in 9.0 mi NNE 11.5 mph 21.9 mph N/A   Overcast
8:54 AM 50.0 °F 48.0 °F 93% 30.06 in 8.0 mi NE 10.4 mph 21.9 mph N/A   Overcast
9:23 AM 50.0 °F 48.0 °F 93% 30.06 in 2.0 mi NE 13.8 mph 18.4 mph 0.02 in Rain Light Rain
9:54 AM 50.0 °F 48.0 °F 93% 30.07 in 4.0 mi NE 12.7 mph - 0.03 in   Overcast
10:24 AM 50.0 °F 48.0 °F 93% 30.08 in 10.0 mi NE 12.7 mph 19.6 mph N/A   Overcast
10:54 AM 51.1 °F 48.0 °F 89% 30.10 in 8.0 mi ENE 10.4 mph - 0.00 in Rain Light Rain
11:16 AM 51.1 °F 48.0 °F 89% 30.09 in 1.8 mi ENE 10.4 mph - 0.00 in   Overcast
11:20 AM 51.1 °F 48.9 °F 92% 30.09 in 1.5 mi NE 11.5 mph - 0.00 in Rain Light Rain
11:31 AM 51.1 °F 48.9 °F 92% 30.09 in 1.8 mi NE 12.7 mph 18.4 mph 0.01 in   Overcast
11:38 AM 51.1 °F 48.9 °F 92% 30.09 in 1.5 mi NE 11.5 mph 19.6 mph 0.01 in Rain Light Rain
11:45 AM 51.1 °F 48.9 °F 92% 30.09 in 1.8 mi NE 10.4 mph - 0.01 in   Overcast
11:54 AM 51.1 °F 48.9 °F 92% 30.08 in 1.8 mi NE 16.1 mph 19.6 mph 0.01 in   Overcast
12:38 PM 53.1 °F 51.1 °F 93% 30.08 in 2.0 mi NE 16.1 mph 25.3 mph 0.02 in Rain Light Rain
12:40 PM 53.1 °F 51.1 °F 93% 30.08 in 1.8 mi NE 13.8 mph 25.3 mph 0.02 in Rain Light Rain
12:52 PM 53.6 °F 51.8 °F 94% 30.08 in 1.5 mi NE 10.4 mph 20.7 mph 0.02 in Rain Light Rain
12:54 PM 53.1 °F 51.1 °F 93% 30.08 in 1.8 mi NE 11.5 mph - 0.02 in Rain Light Rain
1:22 PM 53.1 °F 51.1 °F 93% 30.07 in 1.5 mi NE 11.5 mph 21.9 mph 0.00 in   Overcast
1:54 PM 53.1 °F 51.1 °F 93% 30.07 in 1.8 mi NE 16.1 mph 21.9 mph 0.01 in   Overcast
2:01 PM 53.1 °F 51.1 °F 93% 30.07 in 1.5 mi NE 20.7 mph 26.5 mph N/A   Overcast
2:06 PM 53.1 °F 51.1 °F 93% 30.07 in 2.0 mi NE 13.8 mph 26.5 mph N/A   Overcast
2:31 PM 53.1 °F 51.1 °F 93% 30.07 in 2.5 mi NE 15.0 mph 26.5 mph N/A   Overcast
2:38 PM 53.1 °F 51.1 °F 93% 30.07 in 4.0 mi NE 17.3 mph 24.2 mph N/A   Overcast
2:54 PM 53.1 °F 51.1 °F 93% 30.08 in 4.0 mi NE 13.8 mph 23.0 mph N/A   Overcast
3:54 PM 53.1 °F 50.0 °F 89% 30.08 in 4.0 mi NE 13.8 mph - N/A   Overcast
4:54 PM 52.0 °F 48.9 °F 89% 30.08 in 10.0 mi NE 16.1 mph 27.6 mph N/A   Overcast
5:17 PM 52.0 °F 48.9 °F 89% 30.09 in 10.0 mi NE 12.7 mph 21.9 mph N/A   Overcast
5:54 PM 52.0 °F 48.9 °F 89% 30.11 in 10.0 mi NE 13.8 mph - N/A   Overcast
6:14 PM 51.1 °F 48.9 °F 92% 30.10 in 9.0 mi NNE 16.1 mph 21.9 mph N/A   Overcast
6:34 PM 51.1 °F 48.0 °F 89% 30.10 in 6.0 mi NE 18.4 mph 27.6 mph 0.01 in Rain Light Rain
6:54 PM 51.1 °F 48.9 °F 92% 30.11 in 9.0 mi NNE 17.3 mph 24.2 mph 0.01 in Rain Light Rain
7:28 PM 50.0 °F 46.9 °F 89% 30.11 in 7.0 mi NE 18.4 mph 28.8 mph 0.00 in   Overcast
7:54 PM 50.0 °F 46.9 °F 89% 30.12 in 7.0 mi NE 11.5 mph 20.7 mph 0.00 in   Overcast
8:14 PM 48.9 °F 46.9 °F 93% 30.12 in 7.0 mi NE 13.8 mph 25.3 mph N/A   Overcast
8:33 PM 50.0 °F 48.0 °F 93% 30.11 in 9.0 mi NNE 16.1 mph 23.0 mph N/A   Overcast
8:54 PM 50.0 °F 48.0 °F 93% 30.12 in 3.0 mi NNE 12.7 mph 21.9 mph N/A   Overcast
9:06 PM 50.0 °F 48.0 °F 93% 30.12 in 2.5 mi NNE 15.0 mph 21.9 mph 0.00 in Rain Light Rain
9:18 PM 50.0 °F 48.9 °F 96% 30.13 in 3.0 mi NNE 17.3 mph 23.0 mph 0.00 in   Overcast
9:35 PM 50.0 °F 48.0 °F 93% 30.12 in 5.0 mi NNE 16.1 mph 25.3 mph 0.00 in   Overcast
9:51 PM 50.0 °F 46.4 °F 87% 30.13 in 5.0 mi NNE 15.0 mph 26.5 mph 0.00 in   Overcast
9:54 PM 50.0 °F 46.9 °F 89% 30.13 in 5.0 mi NNE 17.3 mph 26.5 mph 0.00 in   Overcast
10:14 PM 50.0 °F 48.0 °F 93% 30.14 in 2.5 mi NNE 13.8 mph 23.0 mph 0.01 in Rain Light Rain
10:39 PM 48.9 °F 46.9 °F 93% 30.13 in 1.8 mi NNE 12.7 mph - 0.11 in Rain Heavy Rain
10:45 PM 48.9 °F 46.9 °F 93% 30.13 in 2.0 mi NNE 13.8 mph - 0.12 in Rain Rain
10:54 PM 48.9 °F 46.9 °F 93% 30.13 in 3.0 mi NNE 16.1 mph - 0.13 in Rain Light Rain
11:12 PM 48.0 °F 46.0 °F 93% 30.13 in 2.5 mi NNE 13.8 mph - 0.06 in Rain Rain
11:26 PM 48.0 °F 46.0 °F 93% 30.12 in 3.0 mi NNE 16.1 mph 23.0 mph 0.12 in Rain Heavy Rain
11:34 PM 48.0 °F 46.0 °F 93% 30.12 in 2.5 mi NNE 13.8 mph 23.0 mph 0.16 in Rain Heavy Rain
11:42 PM 48.0 °F 46.0 °F 93% 30.13 in 4.0 mi NNE 15.0 mph - 0.17 in Rain Light Rain
11:54 PM 48.9 °F 46.0 °F 90% 30.13 in 7.0 mi NE 12.7 mph - 0.18 in Rain Light Rain